Regional Weather Roundup
Issued by NWS

Home | Current Version | Previous Version | Graphics & Text | Print | Product List | Glossary On
Versions: 1 2 3 4 5 6 7 8 9 10 11 12 13 14 15 16 17 18 19 20 21 22 23 24 25 26 27 28 29 30 31 32 33 34 35 36 37 38 39 40 41 42 43 44 45 46 47 48 49 50
575
ASUS43 KDMX 210506
RWRIA

WEATHER ROUNDUP FOR IOWA
NATIONAL WEATHER SERVICE DES MOINES IA
1200 AM CDT MON AUG 21 2017

NOTE: "FAIR" INDICATES FEW OR NO CLOUDS BELOW 12,000 FEET WITH NO
SIGNIFICANT WEATHER AND/OR OBSTRUCTIONS TO VISIBILITY.

* - THESE STATIONS ARE NOT NWS STATIONS...THUS NOT UNDER NWS
QUALITY CONTROL.  THEY ALSO DO NOT REPORT WEATHER SUCH
AS PRECIPITATION OR FOG.

IAZ001>003-012>014-020>022-031>034-043>046-210600-
   NORTHWEST IOWA

CITY           SKY/WX    TMP DP  RH WIND       PRES   REMARKS
CARROLL *      CLOUDY    72  72 100 CALM      29.97F
CHEROKEE *     CLOUDY    74  71  91 N6        29.96F
DENISON *      CLOUDY    73  68  83 NE16      30.01R
LE MARS *      CLOUDY   102 N/A N/A NE8       29.96F
ORANGE CITY *  CLOUDY    73  70  88 NE6       29.98F
SHELDON *      CLOUDY    70  66  88 NE7       29.98F
SIOUX CITY     CLOUDY    74  69  85 SE6       29.95F
SPENCER        PTCLDY    70  68  93 NE7       30.00F
STORM LAKE *   CLOUDY    73  70  88 E5        29.97F
$$

IAZ055>058-069>071-079>083-090>094-210600-
   SOUTHWEST IOWA

CITY           SKY/WX    TMP DP  RH WIND       PRES   REMARKS
ATLANTIC *     CLOUDY    73  64  73 SE7       29.95F
AUDUBON *      LGT RAIN  72  66  83 SW6       29.98F
CLARINDA *     CLOUDY    70  66  88 S7        30.01F
COUNCIL BLFS * CLEAR     72  68  88 S13       29.95F
CRESTON *      CLOUDY    66  64  94 SE7       30.02F
HARLAN  *      CLOUDY    75  66  73 SE7       29.97F
LAMONI         MOCLDY    70  65  84 E3        30.03F
RED OAK *      PTCLDY    72  66  83 S8        29.97F
SHENANDOAH *   CLOUDY    72  66  83 SE7       29.98F
$$

IAZ047>049-059>061-072>074-084-210600-
   CENTRAL IOWA

CITY           SKY/WX    TMP DP  RH WIND       PRES   REMARKS
AMES           CLOUDY    71  71 100 SE6       30.02F
ANKENY *       MOCLDY    70  68  94 SE5       30.02F
BOONE *        CLOUDY    70  68  94 SE5       30.01F
CHARITON *     MOCLDY    68  66  94 SE3       30.03F
DES MOINES     CLOUDY    72  66  81 SE7       30.01F
GRINNELL*      MOCLDY    68  65  90 CALM      30.06S
KNOXVILLE *    CLOUDY    68  64  88 S3        30.02F
MARSHALLTOWN   PTCLDY    67  67 100 SE3       30.03S
NEWTON *       CLOUDY    68  66  94 SE5       30.04F
PELLA *        PTCLDY    69  66  90 CALM      30.05S
PERRY *        CLOUDY    70  69  96 SE5       30.00F
$$

IAZ004>006-015-016-023>025-035-036-210600-
   NORTH CENTRAL IOWA

CITY           SKY/WX    TMP DP  RH WIND       PRES   REMARKS
ALGONA *       CLEAR     70  70 100 NE5       30.01F
CLARION *      MOCLDY    72  72 100 SE8G14    30.01F
ESTHERVILLE    CLEAR     68  68 100 NE7       30.01F
FORT DODGE *   CLOUDY    73  66  78 CALM      30.00F
MASON CITY     CLOUDY    68  66  93 S7        30.05S
FOREST CITY *    N/A     66  66 100 CALM      30.03F
WEBSTER CITY * CLOUDY    72  70  94 SE6       29.99F
IOWA FALLS *   CLOUDY    70  67  92 E5        30.05F
$$

IAZ007>011-017>019-026>030-037>042-050>054-066-210600-
   NORTHEAST IOWA

CITY           SKY/WX    TMP DP  RH WIND       PRES   REMARKS
CEDAR RAPIDS   MOCLDY    69  68  96 CALM      30.04R
CHARLES CITY * MOCLDY    68  68 100 SE3       30.06R
CLINTON *      CLEAR     67  67 100 N8        30.04R
DECORAH *      CLEAR     68  66  94 VRB5      30.03S
DUBUQUE        CLEAR     66  65  96 CALM      30.07R FOG
MONTICELLO *   PTCLDY    63  63 100 CALM      30.05S FOG
OELWEIN *      PTCLDY    64  64 100 SE5       30.07R
WATERLOO       CLOUDY    68  66  93 CALM      30.04R
$$

IAZ064-065-067-068-078-210600-
   EAST CENTRAL IOWA

CITY           SKY/WX    TMP DP  RH WIND       PRES   REMARKS
DAVENPORT      CLEAR     65  64  97 CALM      30.05R FOG
IOWA CITY      CLEAR     69  67  93 SW3       30.06R
MT. PLEASANT * CLEAR     64  64 100 CALM      30.04S
MUSCATINE *    PTCLDY    68  66  94 CALM      30.03S
QUAD CITIES    CLEAR     68  65  90 CALM      30.02S
$$

IAZ062-063-075>077-085>089-095>099-210600-
   SOUTHEAST IOWA

CITY           SKY/WX    TMP DP  RH WIND       PRES   REMARKS
BURLINGTON     CLEAR     70  68  93 W3        30.03S
FAIRFIELD *    PTCLDY    66  63  88 CALM      30.04S
FORT MADISON * PTCLDY    70  68  94 CALM      30.05R
KEOKUK *       CLOUDY    68  66  94 CALM      30.03S
OSKALOOSA *    HVY RAIN  66  65  96 CALM      30.05S
OTTUMWA        CLOUDY    70  67  90 W3        30.04S THUNDER
$$

ABBREVIATIONS USED IN REMARKS
   TC - TEMPERATURES IN CELSIUS
  WCI - WIND CHILL INDEX
   HX - HEAT INDEX
  VSB - VISIBILITY
$$





USA.gov is the U.S. government's official web portal to all federal, state and local government web resources and services.